Home   Weather   Berlin   Past weeks

Flag for Germany Past Weather in Berlin, Berlin, Germany — Yesterday and Last 2 Weeks

Now
50 °F

Partly sunny.


Feels Like: 45 °F
Forecast: 44 / 46 °F
Wind: 15 mph from West

Location: Berlin-Tegel

Current Time: Dec 10, 2016 at 1:56:14 pm

Latest Report: Dec 10, 2016 at 1:20 pm


Visibility: N/A

Pressure: 30.07 "Hg

Humidity: 76%

Dew Point: 43 °F

Location of BerlinLocation

Past Weather in Berlin — Graph

°F

Berlin Temperature Yesterday

Maximum temperature yesterday: 50 °F (at 3:20 pm)
Minimum temperature yesterday: 41 °F (at 12:20 am)
Average temperature yesterday: 46 °F

High & Low Weather Summary for the Past Weeks

 TemperatureHumidityPressure
High52 °F (Dec 8, 1:20 pm)100% (Nov 25, 12:20 pm)30.57 "Hg (Nov 25, 12:20 pm)
Low19 °F (Nov 29, 1:20 am)56% (Nov 28, 2:20 pm)29.74 "Hg (Dec 1, 10:20 pm)
Average36 °F87%30.24 "Hg
* Reported Nov 25 12:20 pm — Dec 10 12:20 pm, Berlin, Weather by CustomWeather, © 2016

Note: Actual official high and low records may vary slightly from our data, if they occured in-between our weather recording intervals... More about our weather records

Advertising

Berlin Weather History for the Previous 24 Hours

Scroll right to see more
 ConditionsComfort  
Time TempWeatherWind HumidityBarometerVisibility
12:20 pm
Sat, Dec 10
50 °FSunny.17 mph76%30.07 "Hg10 mi
11:50 am50 °FPassing clouds.14 mph76%30.07 "HgN/A
11:20 am50 °FSunny.16 mph76%30.07 "Hg10 mi
10:50 am50 °FSunny.14 mph76%30.09 "Hg10 mi
10:20 am50 °FSunny.12 mph82%30.09 "Hg10 mi
9:50 am50 °FSunny.10 mph82%30.09 "Hg10 mi
9:20 am48 °FSunny.9 mph87%30.09 "Hg10 mi
8:50 am48 °FSunny.8 mph87%30.09 "Hg10 mi
8:20 am48 °FSunny.10 mph87%30.09 "Hg10 mi
7:50 am48 °FClear.13 mph87%30.09 "Hg10 mi
7:20 am48 °FClear.13 mph87%30.09 "Hg10 mi
6:50 am48 °FClear.12 mph87%30.09 "Hg10 mi
6:20 am48 °FClear.10 mph87%30.09 "Hg10 mi
5:50 am48 °FClear.10 mph87%30.09 "Hg10 mi
5:20 am48 °FPassing clouds.12 mph87%30.12 "HgN/A
4:50 am48 °FPassing clouds.12 mph87%30.12 "HgN/A
4:20 am48 °FPassing clouds.13 mph94%30.12 "HgN/A
3:50 am50 °FPassing clouds.13 mph88%30.12 "HgN/A
3:20 am48 °FPartly cloudy.10 mph94%30.12 "HgN/A
2:50 am48 °FPassing clouds.12 mph94%30.15 "HgN/A
2:20 am48 °FPartly cloudy.14 mph94%30.12 "Hg5 mi
1:50 am48 °FPartly cloudy.12 mph94%30.15 "Hg5 mi
1:20 am48 °FPartly cloudy.13 mph94%30.15 "Hg4 mi
12:50 am48 °FFog.14 mph94%30.15 "Hg3 mi
12:20 am48 °FDrizzle. Fog.12 mph94%30.18 "Hg2 mi
11:50 pm
Fri, Dec 9
48 °FDrizzle. Fog.13 mph94%30.18 "Hg2 mi
11:20 pm48 °FDrizzle. Fog.12 mph94%30.18 "Hg1 mi
10:50 pm48 °FDrizzle. Low clouds.9 mph87%30.18 "Hg3 mi
10:20 pm48 °FPassing clouds.10 mph87%30.21 "Hg4 mi
9:50 pm48 °FPassing clouds.12 mph87%30.21 "Hg4 mi
9:20 pm48 °FPassing clouds.14 mph87%30.21 "Hg4 mi
8:50 pm48 °FPassing clouds.12 mph87%30.24 "HgN/A
8:20 pm48 °FPassing clouds.10 mph87%30.24 "HgN/A
7:50 pm48 °FPassing clouds.13 mph87%30.24 "HgN/A
7:20 pm48 °FPassing clouds.14 mph87%30.24 "HgN/A
6:50 pm48 °FPassing clouds.14 mph87%30.24 "HgN/A
6:20 pm48 °FPassing clouds.13 mph87%30.24 "HgN/A
5:50 pm48 °FPartly cloudy.14 mph87%30.24 "HgN/A
5:20 pm48 °FPassing clouds.12 mph87%30.24 "HgN/A
4:50 pm48 °FPartly cloudy.10 mph87%30.24 "HgN/A
4:20 pm48 °FPassing clouds.10 mph94%30.24 "HgN/A
3:50 pm48 °FBroken clouds.12 mph87%30.24 "HgN/A
3:20 pm50 °FBroken clouds.15 mph82%30.24 "HgN/A
2:50 pm48 °FPartly sunny.14 mph87%30.24 "HgN/A
2:20 pm48 °FPartly sunny.13 mph87%30.24 "HgN/A
1:50 pm48 °FPartly sunny.13 mph87%30.24 "HgN/A
1:20 pm48 °FPartly sunny.13 mph87%30.24 "HgN/A
Weather by CustomWeather, © 2016

See weather overviewHow to use our weather pages